sat.trackr.live / text

‹ back to catalog

STARLINK-30947

NORAD 58473 · 2023-186A

PAYLOAD ACTIVE UNKNOWN

§ Identity

Operator
Country
US
Launch date
2023-12-03
Launch site
AFETR
Launch vehicle
Mass (kg)
RCS (m²)

Purposes: comms

External: N2YO · Heavens-Above · Gunter

§ Orbital elements

Epoch: 2026-09-20T15:58:34.466880Z

Period
94.27 min
Inclination
43.0051°
Eccentricity
0.0001717
Mean motion
15.27574840 rev/d
Perigee alt
481.9 km
Apogee alt
484.2 km
Semi-major
6,861.2 km
B*
3.1387e-5
RAAN
46.0762°
Arg perigee
272.6391°
Mean anomaly
87.4264°
Rev number
15,567

§ Raw data

STARLINK-309471 58473U 23186A   26263.66567670  .00000601  00000+0  31387-4 0  99912 58473  43.0051  46.0762 0001717 272.6391  87.4264 15.27574840155671

JSON: /api/v1/satellites/58473 · /tle

For live sub-satellite position, see the globe view (requires WebGL).

§ Visibility from observer

Set your observer location to see the next 7 days of passes ≥ 10°. The values pass through the URL so the page stays shareable.

No JS? Fill the form by hand. The geolocation button needs JavaScript.